This is the latest recevied weather packets stored in our database for station/object N5ZP. If no packets are shown the sender has not sent any weather packets the latest 10 day(s).
| Time | Temp. | Humidity | Pressure | Rain* | Wind** | Luminosity | Snow |
|---|---|---|---|---|---|---|---|
| 1777864800 | 18.89° C | 56% | 1012.6 hPa | 0 mm | - | 0 W/m² | - |
| 1777847836 | 28.33° C | 32% | 1012.8 hPa | 0 mm | - | 300 W/m² | - |
| 1777846626 | 27.78° C | 31% | 1013 hPa | 0 mm | - | 312 W/m² | - |
| 1777846019 | 28.33° C | 33% | 1012.9 hPa | 0 mm | - | 256 W/m² | - |
| 1777845716 | 27.78° C | 33% | 1013 hPa | 0 mm | - | 340 W/m² | - |
| 1777845417 | 27.78° C | 31% | 1013 hPa | 0 mm | - | 368 W/m² | - |
| 1777845109 | 28.33° C | 32% | 1013.2 hPa | 0 mm | - | 379 W/m² | - |
| 1777844197 | 28.89° C | 31% | 1013.5 hPa | 0 mm | - | 422 W/m² | - |
| 1777843591 | 28.33° C | 34% | 1013.6 hPa | 0 mm | - | 464 W/m² | - |
| 1777842986 | 28.89° C | 32% | 1013.5 hPa | 0 mm | - | 494 W/m² | - |
| 1777842681 | 28.89° C | 32% | 1013.9 hPa | 0 mm | - | 516 W/m² | - |
| 1777842378 | 28.89° C | 33% | 1013.9 hPa | 0 mm | - | 514 W/m² | - |
| 1777842075 | 28.33° C | 33% | 1014.2 hPa | 0 mm | - | 537 W/m² | - |
| 1777841771 | 28.89° C | 33% | 1014.1 hPa | 0 mm | - | 559 W/m² | - |
| 1777840558 | 28.89° C | 33% | 1014.6 hPa | 0 mm | - | 600 W/m² | - |
| 1777840255 | 28.89° C | 30% | 1014.5 hPa | 0 mm | - | 611 W/m² | - |
| 1777839953 | 28.33° C | 33% | 1014.7 hPa | 0 mm | - | 623 W/m² | - |
| 1777839651 | 27.78° C | 33% | 1014.8 hPa | 0 mm | - | 637 W/m² | - |
| 1777839349 | 28.33° C | 33% | 1014.8 hPa | 0 mm | - | 654 W/m² | - |
| 1777839046 | 27.78° C | 34% | 1014.9 hPa | 0 mm | - | 668 W/m² | - |
| 1777838742 | 27.22° C | 34% | 1014.7 hPa | 0 mm | - | 697 W/m² | - |
| 1777837530 | 28.33° C | 36% | 1015.3 hPa | 0 mm | - | 717 W/m² | - |
| 1777832683 | 28.33° C | 40% | 1016.5 hPa | 0 mm | - | 784 W/m² | - |
| 1777827511 | 27.22° C | 44% | 1018.1 hPa | 0 mm | - | 736 W/m² | - |
| 1777827209 | 27.22° C | 44% | 1018 hPa | 0 mm | - | 731 W/m² | - |
* Rain latest hour (hover to see other rain measurements)
** Current wind speed in m/s (hover to see current wind gust speed)